Flag for Mauritania Weather past 2 weeks in Nouadhibou, Mauritania

Now
75 °F

Sandstorm.


Feels Like: 76 °F
Forecast: N/A
Wind: 17 mph from Northwest

Location: Nouadhibou Airport

Current Time: Sep 1, 2014 at 7:17:01 PM

Latest Report: Sep 1, 2014 at 7:00 PM


Visibility: 4 mi

Pressure: 29.86 "Hg

Humidity: 78%

Dew point: 68 °F

Location of NouadhibouLocation

Historic Weather in Nouadhibou — Graph

°F

Nouadhibou temperature yesterday

Maximum temperature yesterday: 93 °F (at 1:00 PM)
Minimum temperature yesterday: 70 °F (at 5:00 AM)
Average temperature yesterday: 77 °F

Past Weeks' High & Low Weather Summary

 TemperatureHumidityPressure
High95 °F (Aug 22, 1:00 PM)94% (Aug 27, 6:00 AM)30.01 "Hg (Aug 27, 6:00 AM)
Low68 °F (Aug 18, 3:00 AM)36% (Aug 31, 12:00 PM)29.77 "Hg (Aug 17, 6:00 PM)
Average75 °F76%29.89 "Hg
* Reported Aug 17 6:00 PM — Sep 1 6:00 PM, Nouadhibou, Weather by CustomWeather, © 2014

Note: Actual official high and low records may vary slightly from our data, if they occured in-between our weather recording intervals... More about our weather records

Advertising

Nouadhibou weather history for previous 24 hours

 ConditionsComfort  
Time TempWeatherWind HumidityBarometerVisibility
6:00 PM
Sep 1
75 °FSandstorm.22 mph78%29.86 "Hg4 mi
5:00 PM75 °FSandstorm.22 mph78%29.86 "Hg4 mi
4:00 PM77 °FSandstorm.21 mph69%29.86 "Hg2 mi
3:00 PM75 °FPassing clouds.23 mph74%29.89 "Hg5 mi
2:00 PM77 °FPassing clouds.20 mph69%29.92 "Hg5 mi
1:00 PM81 °FClear.16 mph66%29.92 "Hg5 mi
12:00 PM88 °FClear.21 mph43%29.95 "Hg5 mi
11:00 AM82 °FClear.22 mph51%29.95 "Hg5 mi
10:00 AM77 °FClear.21 mph65%29.95 "Hg5 mi
9:00 AM72 °FClear.15 mph83%29.95 "Hg5 mi
8:00 AM70 °FClear.17 mph88%29.92 "Hg5 mi
7:00 AM68 °FScattered clouds.16 mph88%29.92 "Hg5 mi
6:00 AM70 °FPassing clouds.16 mph88%29.92 "Hg5 mi
5:00 AM70 °FPassing clouds.18 mph88%29.89 "Hg5 mi
4:00 AM72 °FPassing clouds.17 mph83%29.89 "Hg5 mi
3:00 AM72 °FPassing clouds.18 mph83%29.89 "Hg5 mi
2:00 AM73 °FPassing clouds.17 mph78%29.89 "Hg5 mi
1:00 AM73 °FPassing clouds.18 mph78%29.92 "Hg5 mi
12:00 AM73 °FPassing clouds.16 mph78%29.92 "Hg5 mi
11:00 PM
Aug 31
73 °FPassing clouds.18 mph78%29.92 "Hg5 mi
10:00 PM73 °FPassing clouds.17 mph78%29.89 "Hg5 mi
9:00 PM73 °FPassing clouds.16 mph78%29.89 "Hg5 mi
8:00 PM73 °FClear.18 mph78%29.86 "Hg5 mi
7:00 PM75 °FClear.20 mph74%29.86 "Hg5 mi
Weather by CustomWeather, © 2014

See weather overviewHow to use our weather pages